Hourly Data Report for May 22, 2018

TORONTO CITY
ONTARIO
Current Station Operator: ECCC - MSC

43°40'00.000" N
79°24'00.000" W
112.50 m
6158355
71508
XTO

Download Data

Hourly Data (May 2018)
Hourly Data Report for May 22, 2018
TIME
LST
Temp Definition
°C
Dew Point Definition
°C
Rel Hum Definition
%
Precip. Amount Definition
mm

Wind Dir Definition
10's deg

Wind Spd Definition
km/h
Visibility Definition
km
Stn Press Definition
kPa
Hmdx Definition


Wind Chill Definition


Weather Definition


00:00 15.5 1.9 40 0.0 LegendMM LegendMM   100.48     LegendNANA
01:00 15.9 0.2 34 0.0 LegendMM LegendMM   100.46     LegendNANA
02:00 14.9 1.7 41 0.0 LegendMM LegendMM   100.40     LegendNANA
03:00 13.7 3.8 51 0.0 LegendMM LegendMM   100.36     LegendNANA
04:00 11.4 7.3 76 1.3 LegendMM LegendMM   100.29     LegendNANA
05:00 11.2 8.7 85 1.9 LegendMM LegendMM   100.27     LegendNANA
06:00 10.9 9.0 88 2.5 LegendMM LegendMM   100.25     LegendNANA
07:00 11.4 9.7 89 0.0 LegendMM LegendMM   100.23     LegendNANA
08:00 12.2 10.2 88 0.2 LegendMM LegendMM   100.17     LegendNANA
09:00 13.4 11.3 87 0.0 LegendMM LegendMM   100.14     LegendNANA
10:00 13.4 11.2 87 0.0 LegendMM LegendMM   100.14     LegendNANA
11:00 13.5 11.3 87 0.0 LegendMM LegendMM   100.11     LegendNANA
12:00 14.3 11.2 82 0.0 LegendMM LegendMM   100.09     LegendNANA
13:00 14.7 10.9 78 0.0 LegendMM LegendMM   100.04     LegendNANA
14:00 15.8 11.6 76 0.0 LegendMM LegendMM   100.00     LegendNANA
15:00 16.1 11.5 74 0.0 LegendMM LegendMM   99.95     LegendNANA
16:00 16.1 11.9 76 0.0 LegendMM LegendMM   99.93     LegendNANA
17:00 16.8 12.8 77 0.0 LegendMM LegendMM   99.91     LegendNANA
18:00 16.1 13.3 83 0.0 LegendMM LegendMM   99.93     LegendNANA
19:00 13.0 10.3 84 0.0 LegendMM LegendMM   99.95     LegendNANA
20:00 13.6 10.8 84 0.0 LegendMM LegendMM   99.98     LegendNANA
21:00 13.5 10.6 82 0.0 LegendMM LegendMM   100.05     LegendNANA
22:00 14.6 12.0 84 0.0 LegendMM LegendMM   100.08     LegendNANA
23:00 15.7 12.9 83 0.0 LegendMM LegendMM   100.10     LegendNANA

Notes on Data Quality.

Legend

  • E = Estimated
  • M = Missing
  • NA = Not Available*
  • [empty] = Indicates an unobserved value
Date modified: